This demonstration page uses our WeatherBlox Daily Observations layout. Learn more.

Left ArrowRight Arrow

39.51506, -84.39828

Hourly Observations for May 29, 2020

Temp ( °F °C ) Dew Point ( °F °C ) Humidity (%) Winds ( mph kmh ) Pressure ( in mb ) Visibility ( mi km ) Precip ( " mm )
12:15 am 00:15 Clear 67 19.3 65 18.3 94 94 SW 5 7 29.92 1013 10 16.0934 0 0
12:35 am 00:35 Cloudy 68 20.1 65 18.4 90 90 WSW 5 7 29.91 1013 10 16.0934 0 0
12:55 am 00:55 Clear 68 20.1 65 18.4 90 90 WSW 6 9 29.92 1013 10 16.0934 0 0
1:15 am 01:15 Cloudy 69 20.7 67 19.2 91 91 WSW 5 7 29.92 1013 10 16.0934 0 0
1:35 am 01:35 Cloudy 70 20.9 66 18.9 88 88 SW 7 11 29.91 1013 10 16.0934 0 0
1:55 am 01:55 Clear 69 20.4 65 18.4 88 88 WSW 3 6 29.91 1013 10 16.0934 0 0
2:15 am 02:15 Partly Cloudy 68 20.2 65 18.1 88 88 SW 5 7 29.91 1013 10 16.0934 0 0
2:35 am 02:35 Clear 68 20 65 18.1 89 89 Calm 29.9 1013 10 16.0934 0 0
2:55 am 02:55 Partly Cloudy 67 19.2 65 18.4 95 95 Calm 29.91 1013 10 16.0934 0 0
3:15 am 03:15 Cloudy with Drizzle 67 19.7 65 18.6 93 93 Calm 29.91 1013 10 16.0934 0 0
3:35 am 03:35 Cloudy with Light Rain 68 19.9 66 19 95 95 WSW 3 6 29.91 1013 7 11.26538 0 0
3:55 am 03:55 Clear 67 19.3 65 18.6 96 96 Calm 29.9 1012 10 16.0934 0 0
4:15 am 04:15 Cloudy 67 19.2 66 18.8 98 98 SW 7 11 29.91 1013 10 16.0934 0 0
4:35 am 04:35 Mostly Cloudy 66 18.8 65 18.2 96 96 SSW 5 7 29.9 1012 10 16.0934 0 0
4:55 am 04:55 Partly Cloudy 65 18.4 64 17.9 97 97 WSW 6 9 29.91 1013 10 16.0934 0 0
5:15 am 05:15 Mostly Cloudy 65 18.3 64 18 98 98 WSW 3 6 29.92 1013 10 16.0934 0 0
5:35 am 05:35 Partly Cloudy 64 18 64 17.8 99 99 SW 3 6 29.92 1013 10 16.0934 0 0
5:55 am 05:55 Partly Cloudy 65 18.1 64 17.8 98 98 SW 5 7 29.92 1013 10 16.0934 0 0
6:15 am 06:15 Partly Cloudy 65 18.4 64 17.9 97 97 SSW 5 7 29.93 1013 10 16.0934 0 0
6:35 am 06:35 Sunny 65 18.3 64 17.8 97 97 Calm 29.93 1013 10 16.0934 0 0
6:55 am 06:55 Sunny 65 18.5 64 18 97 97 SSW 6 9 29.94 1014 10 16.0934 0 0
7:15 am 07:15 Sunny 65 18.6 64 17.8 95 95 WSW 7 11 29.95 1014 10 16.0934 0 0
7:35 am 07:35 Mostly Cloudy 66 18.8 64 17.7 93 93 SW 7 11 29.95 1014 10 16.0934 0 0
7:55 am 07:55 Partly Cloudy 67 19.2 64 18 93 93 SW 7 11 29.96 1014 10 16.0934 0 0
8:15 am 08:15 Cloudy 67 19.6 65 18.2 92 92 SW 6 9 29.96 1014 10 16.0934 0 0
8:35 am 08:35 Cloudy 68 19.9 65 18.2 90 90 SSW 10 17 29.95 1014 10 16.0934 0 0
8:55 am 08:55 Cloudy 69 20.4 65 18.5 89 89 SW 10 17 29.95 1014 10 16.0934 0 0
9:15 am 09:15 Mostly Cloudy 69 20.4 65 18.3 88 88 WSW 14 22 29.95 1014 10 16.0934 0 0
9:35 am 09:35 Mostly Cloudy 70 21.1 65 18.6 86 86 WSW 13 20 29.95 1014 10 16.0934 0 0
9:55 am 09:55 Cloudy 70 21 65 18.3 85 85 WSW 12 19 29.95 1014 10 16.0934 0 0
10:15 am 10:15 Cloudy 70 21.1 65 18.4 85 85 W 8 13 29.95 1014 10 16.0934 0 0
10:35 am 10:35 Cloudy 71 21.4 66 18.7 85 85 W 8 13 29.95 1014 10 16.0934 0 0
10:55 am 10:55 Cloudy 72 22.2 66 18.7 81 81 WSW 10 17 29.94 1014 10 16.0934 0 0
11:15 am 11:15 Cloudy 72 22.2 66 18.8 81 81 WSW 12 19 29.94 1014 7 11.26538 0 0
11:35 am 11:35 Cloudy 72 22.4 66 18.9 81 81 WSW 12 19 29.94 1014 10 16.0934 0 0
11:55 am 11:55 Mostly Cloudy 73 22.6 66 19.1 81 81 SW 10 17 29.94 1014 10 16.0934 0 0
12:15 pm 12:15 Partly Cloudy 75 23.9 67 19.6 77 77 SW 13 20 29.92 1013 10 16.0934 0 0
12:35 pm 12:35 Cloudy with Light Rain 73 23 65 18.6 76 76 W 10 17 29.91 1013 10 16.0934 0 0
12:55 pm 12:55 Cloudy with Nearby Thunderstorms 71 21.8 67 19.6 87 87 WNW 8 13 29.91 1013 10 16.0934 0 0
1:15 pm 13:15 Cloudy with Light Rain 71 21.4 66 18.8 85 85 W 8 13 29.91 1013 10 16.0934 0 0
1:35 pm 13:35 Cloudy with Light Rain 69 20.3 65 18.1 87 87 W 13 20 29.91 1013 10 16.0934 0 0
1:55 pm 13:55 Partly Cloudy 70 20.9 65 18.6 87 87 WSW 9 15 29.91 1013 10 16.0934 0 0
2:15 pm 14:15 Mostly Cloudy 71 21.8 64 17.8 78 78 WSW 10 17 29.92 1013 10 16.0934 0 0
2:35 pm 14:35 Partly Cloudy with Nearby Thunderstorms 70 21.2 64 17.7 81 81 WSW 8 13 29.92 1013 10 16.0934 0 0
2:55 pm 14:55 Cloudy with Light Rain 69 20.7 65 18.5 87 87 W 6 9 29.92 1013 10 16.0934 0 0
3:15 pm 15:15 Cloudy with Rain 68 20.1 66 19 93 93 WNW 10 17 29.94 1014 7 11.26538 0 0
3:35 pm 15:35 Cloudy with Heavy Rain 65 18.6 64 17.7 95 95 NW 14 22 29.96 1014 3.5 5.63269 0 0
3:55 pm 15:55 Cloudy with Thunderstorms 64 18 63 17.1 95 95 WNW 8 13 29.96 1015 5 8.0467 0 0
4:15 pm 16:15 Cloudy with Rain 64 17.9 63 17.1 95 95 W 5 7 29.96 1015 7 11.26538 0 0
4:35 pm 16:35 Cloudy with Light Rain 67 19.2 65 18.4 95 95 N 6 9 29.95 1014 10 16.0934 0 0
4:55 pm 16:55 Partly Cloudy 69 20.5 63 17.4 82 82 NNW 7 11 29.93 1014 10 16.0934 0 0
5:15 pm 17:15 Mostly Cloudy 71 21.5 63 17.1 76 76 NNW 8 13 29.94 1014 10 16.0934 0 0
5:35 pm 17:35 Partly Cloudy 71 21.4 64 17.7 80 80 N 6 9 29.95 1014 10 16.0934 0 0
5:55 pm 17:55 Cloudy 70 21.2 65 18.1 83 83 N 5 7 29.96 1015 10 16.0934 0 0
6:15 pm 18:15 Cloudy 71 21.6 64 17.5 78 78 N 3 6 29.96 1015 10 16.0934 0 0
6:35 pm 18:35 Cloudy 71 21.4 59 14.9 67 67 N 7 11 29.97 1015 10 16.0934 0 0
6:55 pm 18:55 Cloudy 70 21.3 58 14.3 64 64 N 5 7 29.97 1015 10 16.0934 0 0
7:15 pm 19:15 Partly Cloudy 71 21.7 59 14.8 65 65 N 5 7 29.97 1015 10 16.0934 0 0
7:35 pm 19:35 Partly Cloudy 71 21.5 57 13.8 62 62 Calm 29.98 1015 10 16.0934 0 0
7:55 pm 19:55 Sunny 70 21.2 58 14.3 65 65 Calm 29.99 1016 10 16.0934 0 0
8:15 pm 20:15 Partly Cloudy 70 21 58 14.4 66 66 Calm 29.99 1016 10 16.0934 0 0
8:35 pm 20:35 Sunny 69 20.3 60 15.3 73 73 Calm 29.99 1016 10 16.0934 0 0
8:55 pm 20:55 Sunny 63 17.4 62 16.5 94 94 Calm 30.01 1016 10 16.0934 0 0
9:15 pm 21:15 Clear 61 16.2 60 15.7 97 97 Calm 30.02 1017 10 16.0934 0 0
9:35 pm 21:35 Clear 61 15.9 60 15.7 99 99 Calm 30.02 1017 10 16.0934 0 0
9:55 pm 21:55 Clear with Mist and Fog 61 15.9 61 15.9 100 100 Calm 30.02 1017 5 8.0467 0 0
10:15 pm 22:15 Clear 60 15.3 60 15.3 100 100 Calm 30.04 1017 10 16.0934 0 0
10:35 pm 22:35 Clear 58 14.7 58 14.7 100 100 Calm 30.04 1017 10 16.0934 0 0
10:55 pm 22:55 Clear 58 14.6 58 14.6 100 100 Calm 30.04 1017 10 16.0934 0 0
11:15 pm 23:15 Clear 58 14.3 58 14.2 99 99 Calm 30.04 1017 10 16.0934 0 0
11:35 pm 23:35 Clear 58 14.2 57 14.1 99 99 Calm 30.04 1017 10 16.0934 0 0
11:55 pm 23:55 Partly Cloudy 59 15 N/A N/A Calm 30.05 1017 10 16.0934 0 0

Powered by AerisWeather